283  
ASUS43 KIWX 220301  
RWRIWX  
 
KIWX WEATHER ROUNDUP  
NATIONAL WEATHER SERVICE NORTHERN INDIANA  
1100 PM EDT TUE MAY 21 2019  
 
NOTE: "FAIR" INDICATES FEW OR NO CLOUDS BELOW 12,000 FEET WITH NO  
SIGNIFICANT WEATHER AND/OR S TO VISIBILITY
.  
 
* THESE STATIONS ARE NOT UNDER NWS QUALITY CONTROL. THEY ALSO MAY NOT  
REPORT WEATHER SUCH AS PRECIPITATION OR FOG.
 
 
INZ001>027-220400-  
NORTHERN INDIANA  
 
CITY SKY/WX TMP DP RH WIND PRES REMARKS
 
GARY* CLOUDY 55 41 58 E14 29.95F  
SOUTH BEND CLOUDY 54 36 50 E23G32 30.01F  
GOSHEN CLOUDY 54 38 54 E21G33 30.02F  
MONTICELLO* FAIR 54 43 67 E13G23 29.96R  
WARSAW* CLOUDY 52 39 62 E16G24 30.02F  
KENDALLVILLE* CLOUDY 53 36 53 E12G21 30.07S  
FORT WAYNE CLOUDY 54 43 66 E16G28 30.05S  
 

 
INZ028>050-220400-  
CENTRAL INDIANA  
 
CITY SKY/WX TMP DP RH WIND PRES REMARKS
 
LAFAYETTE FAIR 54 44 69 E17G29 29.93S  
KOKOMO* MOCLDY 53 45 74 E14G22 30.00R  
MUNCIE* FAIR 55 45 68 E14 30.01R  
INDIANAPOLIS MOCLDY 56 45 66 E15G24 29.94R  
 

 
MIZ043>046-050>051-056>058-064>065-071>073-077>080-220400-  
SOUTHWEST LOWER MICHIGAN  
 
CITY SKY/WX TMP DP RH WIND PRES REMARKS
 
BATTLE CREEK FAIR 56 38 50 E12G18 30.08R  
BENTON HARBOR CLOUDY 56 38 50 E20G35 29.99F  
COLDWATER* CLOUDY 53 40 61 E13G18 30.08S  
HILLSDALE* FAIR 51 39 64 E13 30.10S  
HOLLAND MOCLDY 57 40 52 E16G24 30.04S  
GRAND RAPIDS CLOUDY 56 41 57 E12 30.08R  
KALAMAZOO FAIR 55 38 52 SE9 30.07S  
STURGIS* CLOUDY 55 41 58 SE13G22 30.05F  
THREE RIVERS* CLOUDY 56 41 56 E10G17 30.06F  
 

 
OHZ001>008-015>018-024>025-220400-  
NORTHWEST OHIO  
 
CITY SKY/WX TMP DP RH WIND PRES REMARKS
 
DEFIANCE CLOUDY 55 40 56 E9 30.09F  
FINDLAY CLOUDY 55 43 63 E13 30.09F  
OTTAWA* CLOUDY 52 41 66 E13 30.11S  
TOLEDO EXPRESS CLOUDY 56 38 50 E9 30.12S  
LIMA CLOUDY 54 43 66 E14 30.08S  
 

 
AND FOR LAKE MICHIGAN COASTAL AND OPEN LAKE BUOY OBSERVATIONS  
 
STATION/POSITION TEMP WIND PRES VSBY WAVE
 
AIR SEA DIR/SP/G HT/PER  
(F) (DEG/KT/KT) (MB) (MI) (FT/S)  
CALUMET HARBOR 54 100/ 10/ 16 1013.7F  
MICHIGAN CITY 55 100/ 23/ 32 N/A  
BURNS HARBOR 56 120/ 13/ 18 1014.6S  
SAINT JOSEPH 56 330/ 2/ 13 1015.9  
SOUTH LAKE BUOY 44 39 100/ 14/ 16 1016.2F  
4 MI NW BRIDGMAN 56 52 80/ 21/ 29 1015.2F 2/ 3  
MICHIGAN CITY 55 51 120/ 19/ 29 N/A 3/ 4  
 

 

 
 
 
CLICK HERE TO GO TO PREVIOUS BULLETINS.

The Nexlab IN Page
The Nexlab OH Page
The Nexlab MI Page Main Text Page